Back to catalog

ALOS 2

AliveScienceSSO
NORAD 39766·PAYLOAD·🇯🇵 Japan

Launched May 24, 2014 from Tanegashima Space Center

Loading…

Next Passes (next 24 hours)

TLE

FreshSource: Space-Track

Epoch: Sep 14, 2026, 14:49 UTC

1 39766U 14029A   26257.61743378  .00000931  00000-0  13151-3 0  9995
2 39766  97.9227 353.5004 0001479  99.0490 261.0889 14.79466881664803

Track ALOS 2 in real time with AllMySat

Download on the App Store